Flag for U.S.A. Weather past 2 weeks in Memphis, Tennessee, U.S.A.

Now
65 °F

Overcast.


Feels Like: 65 °F
Forecast: 56 / 83 °F
Wind: 7 mph from East

Location: Memphis International Airport

Current Time: May 23, 2015 at 2:15:40 AM

Latest Report: May 23, 2015 at 12:54 AM


Visibility: 10 mi

Pressure: 30.22 "Hg

Humidity: 56%

Dew point: 49 °F

Location of MemphisLocation

Historic Weather in Memphis — Graph

°F

Memphis temperature yesterday

Maximum temperature yesterday: 76 °F (at 3:54 PM)
Minimum temperature yesterday: 49 °F (at 4:54 AM)
Average temperature yesterday: 63 °F

Past Weeks' High & Low Weather Summary

 TemperatureHumidityPressure
High87 °F (May 10, 3:54 PM)94% (May 19, 6:00 AM)30.32 "Hg (May 19, 6:00 AM)
Low49 °F (May 22, 4:54 AM)29% (May 13, 3:54 PM)29.93 "Hg (May 20, 12:54 PM)
Average71 °F69%30.09 "Hg
* Reported May 8 12:54 AM — May 23 12:54 AM, Memphis, Weather by CustomWeather, © 2015

Note: Actual official high and low records may vary slightly from our data, if they occured in-between our weather recording intervals... More about our weather records

Advertising

Memphis weather history for previous 24 hours

 ConditionsComfort  
Time TempWeatherWind HumidityBarometerVisibility
12:54 AM
Sat, May 23
65 °FOvercast.7 mph56%30.22 "Hg10 mi
11:54 PM
Fri, May 22
66 °FPartly cloudy.6 mph52%30.23 "Hg10 mi
10:54 PM65 °FPassing clouds.8 mph56%30.23 "Hg10 mi
9:54 PM66 °FPassing clouds.7 mph56%30.24 "Hg10 mi
8:54 PM68 °FPassing clouds.7 mph51%30.23 "Hg10 mi
7:54 PM70 °FHigh level clouds.9 mph46%30.22 "Hg10 mi
6:54 PM72 °FHigh level clouds.9 mph41%30.21 "Hg10 mi
5:54 PM75 °FPartly sunny.9 mph34%30.22 "Hg10 mi
4:54 PM75 °FPartly sunny.7 mph33%30.22 "Hg10 mi
3:54 PM76 °FScattered clouds.7 mph33%30.23 "Hg10 mi
2:54 PM75 °FScattered clouds.7 mph33%30.24 "Hg10 mi
1:54 PM73 °FPassing clouds.No wind37%30.26 "Hg10 mi
12:54 PM70 °FPassing clouds.No wind41%30.27 "Hg10 mi
11:54 AM68 °FPassing clouds.8 mph45%30.29 "Hg10 mi
10:54 AM65 °FScattered clouds.10 mph49%30.28 "Hg10 mi
9:54 AM63 °FScattered clouds.9 mph52%30.29 "Hg10 mi
8:54 AM61 °FScattered clouds.5 mph58%30.31 "Hg10 mi
7:54 AM57 °FPartly sunny.7 mph69%30.30 "Hg10 mi
6:54 AM52 °FScattered clouds.No wind83%30.29 "Hg10 mi
5:54 AM49 °FScattered clouds.No wind86%30.26 "Hg10 mi
4:54 AM49 °FClear.No wind86%30.23 "Hg9 mi
3:54 AM50 °FClear.3 mph83%30.21 "Hg10 mi
2:54 AM50 °FClear.5 mph83%30.21 "Hg10 mi
Weather by CustomWeather, © 2015

See weather overviewHow to use our weather pages